Wetterdaten: Donnerstag, 17.05.2012
Datum Zeit Temperatur Luftfeuchte Regen Wind Richtung Richtung Taupunkt Windchill Windben
17.05.2012 00:00 2,1 C 94 % 0,0 l/m 1,3 km/h (1 Bft) O-SO 112 1,2 C 1,6 C 4,7 km/h (1 Bft)
17.05.2012 00:05 2,0 C 94 % 0,0 l/m 1,6 km/h (1 Bft) NO 45 1,1 C 1,6 C 4,7 km/h (1 Bft)
17.05.2012 00:10 2,0 C 94 % 0,0 l/m 3,5 km/h (1 Bft) SO 135 1,1 C 1,0 C 4,0 km/h (1 Bft)
17.05.2012 00:15 2,0 C 94 % 0,0 l/m 4,2 km/h (1 Bft) O 90 1,1 C 0,6 C 11,9 km/h (2 Bft)
17.05.2012 00:20 1,9 C 94 % 0,0 l/m 2,7 km/h (1 Bft) O-NO 67 1,0 C 1,5 C 4,3 km/h (1 Bft)
17.05.2012 00:25 1,7 C 94 % 0,0 l/m 2,1 km/h (1 Bft) O 90 0,8 C 1,4 C 2,4 km/h (1 Bft)
17.05.2012 00:30 1,5 C 94 % 0,0 l/m 2,3 km/h (1 Bft) O-SO 112 0,6 C 1,2 C 1,8 km/h (1 Bft)
17.05.2012 00:35 1,4 C 94 % 0,0 l/m 2,1 km/h (1 Bft) N-NO 22 0,5 C 1,1 C 2,3 km/h (1 Bft)
17.05.2012 00:40 1,4 C 94 % 0,0 l/m 1,3 km/h (1 Bft) SW 225 0,5 C 0,9 C 0,0 km/h (0 Bft)
17.05.2012 00:45 1,5 C 94 % 0,0 l/m 0,8 km/h (0 Bft) NO 45 0,6 C 0,9 C 0,0 km/h (0 Bft)
17.05.2012 00:50 1,7 C 94 % 0,0 l/m 1,3 km/h (1 Bft) O-SO 112 0,8 C 1,1 C 2,3 km/h (1 Bft)
17.05.2012 00:55 1,8 C 94 % 0,0 l/m 1,3 km/h (1 Bft) NO 45 0,9 C 1,3 C 2,3 km/h (1 Bft)
17.05.2012 01:00 1,8 C 94 % 0,0 l/m 1,3 km/h (1 Bft) O-NO 67 0,9 C 1,3 C 3,5 km/h (1 Bft)
17.05.2012 01:05 1,8 C 94 % 0,0 l/m 1,6 km/h (1 Bft) O-SO 112 0,9 C 1,4 C 8,0 km/h (2 Bft)
17.05.2012 01:10 1,9 C 94 % 0,0 l/m 2,4 km/h (1 Bft) O-SO 112 1,0 C 1,5 C 2,9 km/h (1 Bft)
17.05.2012 01:15 1,9 C 94 % 0,0 l/m 2,4 km/h (1 Bft) S-SO 157 1,0 C 1,5 C 3,7 km/h (1 Bft)
17.05.2012 01:20 1,9 C 94 % 0,0 l/m 2,1 km/h (1 Bft) O-SO 112 1,0 C 1,6 C 5,8 km/h (2 Bft)
17.05.2012 01:25 1,9 C 94 % 0,0 l/m 2,4 km/h (1 Bft) O 90 1,0 C 1,6 C 2,4 km/h (1 Bft)
17.05.2012 01:30 1,8 C 94 % 0,0 l/m 2,1 km/h (1 Bft) NO 45 0,9 C 1,5 C 2,6 km/h (1 Bft)
17.05.2012 01:35 1,8 C 94 % 0,0 l/m 1,8 km/h (1 Bft) O-SO 112 0,9 C 1,5 C 1,6 km/h (1 Bft)
17.05.2012 01:40 1,9 C 94 % 0,0 l/m 2,3 km/h (1 Bft) SO 135 1,0 C 1,5 C 4,2 km/h (1 Bft)
17.05.2012 01:45 1,9 C 94 % 0,0 l/m 2,3 km/h (1 Bft) O 90 1,0 C 1,5 C 3,9 km/h (1 Bft)
17.05.2012 01:50 1,9 C 94 % 0,0 l/m 1,3 km/h (1 Bft) O 90 1,0 C 1,5 C 0,0 km/h (0 Bft)
17.05.2012 01:55 1,8 C 94 % 0,0 l/m 1,0 km/h (0 Bft) O 90 0,9 C 1,4 C 1,9 km/h (1 Bft)
17.05.2012 02:00 1,7 C 94 % 0,0 l/m 1,1 km/h (1 Bft) O 90 0,8 C 1,4 C 0,0 km/h (0 Bft)
17.05.2012 02:05 1,7 C 94 % 0,0 l/m 1,4 km/h (1 Bft) O-SO 112 0,8 C 1,3 C 0,0 km/h (0 Bft)
17.05.2012 02:10 1,6 C 94 % 0,0 l/m 1,3 km/h (1 Bft) NO 45 0,7 C 1,2 C 4,7 km/h (1 Bft)
17.05.2012 02:15 1,5 C 94 % 0,0 l/m 1,1 km/h (1 Bft) N 360 0,6 C 1,1 C 0,0 km/h (0 Bft)
17.05.2012 02:20 1,2 C 94 % 0,0 l/m 1,4 km/h (1 Bft) O-SO 112 0,3 C 0,9 C 3,1 km/h (1 Bft)
17.05.2012 02:25 1,2 C 94 % 0,0 l/m 1,4 km/h (1 Bft) N-NO 22 0,3 C 0,8 C 2,7 km/h (1 Bft)
17.05.2012 02:30 1,1 C 94 % 0,0 l/m 1,0 km/h (0 Bft) N 360 0,2 C 0,7 C 0,0 km/h (0 Bft)
17.05.2012 02:35 1,2 C 94 % 0,0 l/m 0,5 km/h (0 Bft) O-SO 112 0,3 C 0,6 C 0,0 km/h (0 Bft)
17.05.2012 02:40 1,3 C 94 % 0,0 l/m 0,2 km/h (0 Bft) N-NO 22 0,4 C 0,7 C 0,0 km/h (0 Bft)
17.05.2012 02:45 1,2 C 94 % 0,0 l/m 0,2 km/h (0 Bft) O 90 0,3 C 0,7 C 0,0 km/h (0 Bft)
17.05.2012 02:50 1,1 C 94 % 0,0 l/m 0,0 km/h (0 Bft) SO 135 0,2 C 0,6 C 0,0 km/h (0 Bft)
17.05.2012 02:55 1,1 C 94 % 0,0 l/m 0,0 km/h (0 Bft) N-NO 22 0,2 C 0,5 C 0,0 km/h (0 Bft)
17.05.2012 03:00 0,9 C 95 % 0,0 l/m 0,0 km/h (0 Bft) O 90 0,2 C 0,5 C 0,0 km/h (0 Bft)
17.05.2012 03:05 1,0 C 94 % 0,0 l/m 0,0 km/h (0 Bft) W-NW 292 0,1 C 0,4 C 0,0 km/h (0 Bft)
17.05.2012 03:10 1,0 C 94 % 0,0 l/m 0,0 km/h (0 Bft) NO 45 0,1 C 0,3 C 0,0 km/h (0 Bft)
17.05.2012 03:15 1,0 C 95 % 0,0 l/m 0,2 km/h (0 Bft) N 360 0,3 C 0,3 C 2,1 km/h (1 Bft)
17.05.2012 03:20 1,0 C 95 % 0,0 l/m 0,6 km/h (0 Bft) N-NO 22 0,3 C 0,3 C 2,1 km/h (1 Bft)
17.05.2012 03:25 0,8 C 95 % 0,0 l/m 0,6 km/h (0 Bft) S 180 0,1 C 0,2 C 2,1 km/h (1 Bft)
17.05.2012 03:30 0,5 C 95 % 0,0 l/m 0,3 km/h (0 Bft) O-SO 112 -0,2 C 0,1 C 0,0 km/h (0 Bft)
17.05.2012 03:35 0,6 C 95 % 0,0 l/m 0,2 km/h (0 Bft) N-NO 22 -0,1 C -0,2 C 0,0 km/h (0 Bft)
17.05.2012 03:40 0,5 C 95 % 0,0 l/m 0,0 km/h (0 Bft) N 360 -0,2 C -0,3 C 0,0 km/h (0 Bft)
17.05.2012 03:45 0,5 C 95 % 0,0 l/m 0,2 km/h (0 Bft) O-NO 67 -0,2 C -0,4 C 0,0 km/h (0 Bft)
17.05.2012 03:50 0,7 C 95 % 0,0 l/m 0,6 km/h (0 Bft) N 360 -0,0 C -0,3 C 2,7 km/h (1 Bft)
17.05.2012 03:55 0,8 C 95 % 0,0 l/m 0,8 km/h (0 Bft) N-NW 337 0,1 C 0,0 C 0,0 km/h (0 Bft)
17.05.2012 04:00 1,0 C 95 % 0,0 l/m 1,3 km/h (1 Bft) N 360 0,3 C 0,1 C 2,7 km/h (1 Bft)
17.05.2012 04:05 1,0 C 95 % 0,0 l/m 1,4 km/h (1 Bft) N-NW 337 0,3 C 0,2 C 3,5 km/h (1 Bft)
17.05.2012 04:10 1,0 C 95 % 0,0 l/m 1,6 km/h (1 Bft) N 360 0,3 C 0,3 C 2,3 km/h (1 Bft)
17.05.2012 04:15 0,9 C 96 % 0,0 l/m 1,6 km/h (1 Bft) N-NO 22 0,3 C 0,2 C 0,0 km/h (0 Bft)
17.05.2012 04:20 0,9 C 96 % 0,0 l/m 1,3 km/h (1 Bft) N-NW 337 0,3 C 0,1 C 2,4 km/h (1 Bft)
17.05.2012 04:25 0,8 C 96 % 0,0 l/m 1,1 km/h (1 Bft) NO 45 0,2 C 0,1 C 0,0 km/h (0 Bft)
17.05.2012 04:30 0,6 C 96 % 0,0 l/m 0,6 km/h (0 Bft) N-NO 22 0,0 C 0,0 C 0,0 km/h (0 Bft)
17.05.2012 04:35 0,7 C 96 % 0,0 l/m 1,0 km/h (0 Bft) N-NO 22 0,1 C 0,0 C 3,1 km/h (1 Bft)
17.05.2012 04:40 0,6 C 96 % 0,0 l/m 1,0 km/h (0 Bft) N-NO 22 0,0 C -0,2 C 2,1 km/h (1 Bft)
17.05.2012 04:45 0,8 C 96 % 0,0 l/m 1,0 km/h (0 Bft) N 360 0,2 C -0,2 C 2,4 km/h (1 Bft)
17.05.2012 04:50 0,7 C 96 % 0,0 l/m 1,0 km/h (0 Bft) N 360 0,1 C 0,0 C 1,6 km/h (1 Bft)
17.05.2012 04:55 0,6 C 96 % 0,0 l/m 0,5 km/h (0 Bft) N 360 0,0 C 0,0 C 0,0 km/h (0 Bft)
17.05.2012 05:00 0,3 C 96 % 0,0 l/m 0,3 km/h (0 Bft) O-SO 112 -0,3 C -0,4 C 0,0 km/h (0 Bft)
17.05.2012 05:05 0,2 C 96 % 0,0 l/m 0,2 km/h (0 Bft) NO 45 -0,4 C -0,4 C 0,0 km/h (0 Bft)
17.05.2012 05:10 0,6 C 96 % 0,0 l/m 0,2 km/h (0 Bft) N 360 0,0 C -0,4 C 0,0 km/h (0 Bft)
17.05.2012 05:15 0,5 C 96 % 0,0 l/m 0,2 km/h (0 Bft) S-SW 202 -0,1 C -0,4 C 0,0 km/h (0 Bft)
17.05.2012 05:20 -0,1 C 96 % 0,0 l/m 0,0 km/h (0 Bft) S-SW 202 -0,7 C -0,8 C 0,0 km/h (0 Bft)
17.05.2012 05:25 -0,3 C 96 % 0,0 l/m 0,0 km/h (0 Bft) S-SW 202 -0,9 C -1,0 C 0,0 km/h (0 Bft)
17.05.2012 05:31 0,0 C 96 % 0,0 l/m 0,0 km/h (0 Bft) W-NW 292 -0,6 C -1,0 C 0,0 km/h (0 Bft)
17.05.2012 05:35 0,0 C 96 % 0,0 l/m 0,0 km/h (0 Bft) W-NW 292 -0,6 C -1,0 C 0,0 km/h (0 Bft)
17.05.2012 05:40 0,0 C 96 % 0,0 l/m 0,0 km/h (0 Bft) N 360 -0,6 C -1,0 C 0,0 km/h (0 Bft)
17.05.2012 05:45 0,1 C 96 % 0,0 l/m 0,2 km/h (0 Bft) NO 45 -0,5 C -1,0 C 0,0 km/h (0 Bft)
17.05.2012 05:50 0,0 C 96 % 0,0 l/m 0,2 km/h (0 Bft) O 90 -0,6 C -0,9 C 0,0 km/h (0 Bft)
17.05.2012 05:55 -0,1 C 96 % 0,0 l/m 0,0 km/h (0 Bft) O-SO 112 -0,7 C -0,9 C 0,0 km/h (0 Bft)
17.05.2012 06:00 0,1 C 96 % 0,0 l/m 0,0 km/h (0 Bft) SO 135 -0,5 C -0,8 C 0,0 km/h (0 Bft)
17.05.2012 06:05 0,2 C 96 % 0,0 l/m 0,0 km/h (0 Bft) W 270 -0,4 C -0,6 C 0,0 km/h (0 Bft)
17.05.2012 06:10 0,3 C 96 % 0,0 l/m 0,0 km/h (0 Bft) S-SW 202 -0,3 C -0,4 C 0,0 km/h (0 Bft)
17.05.2012 06:15 0,4 C 96 % 0,0 l/m 0,0 km/h (0 Bft) S 180 -0,2 C -0,4 C 0,0 km/h (0 Bft)
17.05.2012 06:20 0,7 C 96 % 0,0 l/m 0,0 km/h (0 Bft) N 360 0,1 C 0,0 C 0,0 km/h (0 Bft)
17.05.2012 06:25 0,9 C 96 % 0,0 l/m 0,0 km/h (0 Bft) N-NW 337 0,3 C 0,3 C 0,0 km/h (0 Bft)
17.05.2012 06:30 1,1 C 96 % 0,0 l/m 0,0 km/h (0 Bft) N 360 0,5 C 1,3 C 0,0 km/h (0 Bft)
17.05.2012 06:35 1,5 C 96 % 0,0 l/m 0,0 km/h (0 Bft) W-SW 247 0,9 C 2,5 C 0,0 km/h (0 Bft)
17.05.2012 06:40 3,0 C 95 % 0,0 l/m 0,2 km/h (0 Bft) S 180 2,3 C 3,4 C 0,0 km/h (0 Bft)
17.05.2012 06:45 3,7 C 95 % 0,0 l/m 0,2 km/h (0 Bft) S 180 3,0 C 3,7 C 0,0 km/h (0 Bft)
17.05.2012 06:50 4,3 C 94 % 0,0 l/m 0,0 km/h (0 Bft) SW 225 3,4 C 4,6 C 0,0 km/h (0 Bft)
17.05.2012 06:55 4,7 C 93 % 0,0 l/m 0,0 km/h (0 Bft) W-SW 247 3,7 C 5,2 C 0,0 km/h (0 Bft)
17.05.2012 07:00 4,9 C 92 % 0,0 l/m 0,0 km/h (0 Bft) N 360 3,7 C 6,1 C 0,0 km/h (0 Bft)
17.05.2012 07:05 3,4 C 92 % 0,0 l/m 0,0 km/h (0 Bft) W-SW 247 2,2 C 5,7 C 0,0 km/h (0 Bft)
17.05.2012 07:10 2,9 C 93 % 0,0 l/m 0,0 km/h (0 Bft) N-NW 337 1,9 C 4,3 C 0,0 km/h (0 Bft)
17.05.2012 07:15 3,2 C 92 % 0,0 l/m 0,0 km/h (0 Bft) S 180 2,0 C 3,8 C 0,0 km/h (0 Bft)
17.05.2012 07:20 4,0 C 93 % 0,0 l/m 0,2 km/h (0 Bft) O-SO 112 3,0 C 3,6 C 2,9 km/h (1 Bft)
17.05.2012 07:25 5,4 C 92 % 0,0 l/m 0,6 km/h (0 Bft) S 180 4,2 C 4,3 C 1,9 km/h (1 Bft)
17.05.2012 07:30 5,8 C 90 % 0,0 l/m 0,8 km/h (0 Bft) S 180 4,3 C 5,6 C 0,0 km/h (0 Bft)
17.05.2012 07:35 5,7 C 89 % 0,0 l/m 0,3 km/h (0 Bft) S-SW 202 4,0 C 6,3 C 0,0 km/h (0 Bft)
17.05.2012 07:40 4,6 C 88 % 0,0 l/m 0,2 km/h (0 Bft) W-SW 247 2,8 C 5,8 C 0,0 km/h (0 Bft)
17.05.2012 07:45 4,5 C 88 % 0,0 l/m 0,2 km/h (0 Bft) W-SW 247 2,7 C 5,4 C 0,0 km/h (0 Bft)
17.05.2012 07:50 7,6 C 82 % 0,0 l/m 0,5 km/h (0 Bft) SW 225 4,7 C 6,8 C 2,4 km/h (1 Bft)
17.05.2012 07:55 8,4 C 79 % 0,0 l/m 1,1 km/h (1 Bft) W-SW 247 5,0 C 8,0 C 2,4 km/h (1 Bft)
17.05.2012 08:00 9,1 C 73 % 0,0 l/m 1,6 km/h (1 Bft) S 180 4,5 C 9,2 C 2,4 km/h (1 Bft)
17.05.2012 08:05 9,2 C 73 % 0,0 l/m 1,9 km/h (1 Bft) S-SW 202 4,6 C 9,7 C 1,9 km/h (1 Bft)
17.05.2012 08:10 10,3 C 73 % 0,0 l/m 2,6 km/h (1 Bft) W-SW 247 5,3 C 10,4 C 2,3 km/h (1 Bft)
17.05.2012 08:15 7,9 C 74 % 0,0 l/m 2,3 km/h (1 Bft) S 180 3,6 C 10,3 C 1,8 km/h (1 Bft)
17.05.2012 08:20 7,6 C 74 % 0,0 l/m 1,6 km/h (1 Bft) S-SO 157 3,3 C 9,6 C 0,0 km/h (0 Bft)
17.05.2012 08:25 6,9 C 75 % 0,0 l/m 1,3 km/h (1 Bft) SO 135 2,8 C 9,6 C 2,1 km/h (1 Bft)
17.05.2012 08:30 5,5 C 79 % 0,0 l/m 0,6 km/h (0 Bft) N-NO 22 2,2 C 8,1 C 0,0 km/h (0 Bft)
17.05.2012 08:35 5,1 C 80 % 0,0 l/m 0,3 km/h (0 Bft) N-NO 22 1,9 C 7,3 C 0,0 km/h (0 Bft)
17.05.2012 08:40 5,0 C 82 % 0,0 l/m 0,2 km/h (0 Bft) NO 45 2,2 C 6,5 C 0,0 km/h (0 Bft)
17.05.2012 08:45 5,0 C 83 % 0,0 l/m 0,3 km/h (0 Bft) NO 45 2,4 C 6,2 C 0,0 km/h (0 Bft)
17.05.2012 08:50 4,5 C 84 % 0,0 l/m 0,3 km/h (0 Bft) NO 45 2,0 C 5,7 C 0,0 km/h (0 Bft)
17.05.2012 08:55 4,4 C 84 % 0,0 l/m 0,5 km/h (0 Bft) N 360 1,9 C 5,5 C 1,8 km/h (1 Bft)
17.05.2012 09:00 4,2 C 85 % 0,0 l/m 0,5 km/h (0 Bft) O 90 1,9 C 5,1 C 0,0 km/h (0 Bft)
17.05.2012 09:05 4,1 C 85 % 0,0 l/m 0,2 km/h (0 Bft) NO 45 1,8 C 5,0 C 0,0 km/h (0 Bft)
17.05.2012 09:10 3,9 C 86 % 0,0 l/m 0,2 km/h (0 Bft) N 360 1,8 C 4,8 C 0,0 km/h (0 Bft)
17.05.2012 09:15 5,4 C 86 % 0,0 l/m 0,2 km/h (0 Bft) NW 315 3,3 C 4,8 C 0,0 km/h (0 Bft)
17.05.2012 09:20 7,7 C 83 % 0,0 l/m 0,0 km/h (0 Bft) S 180 5,1 C 7,5 C 1,6 km/h (1 Bft)
17.05.2012 09:25 8,9 C 76 % 0,0 l/m 0,5 km/h (0 Bft) O-SO 112 6,5 C 9,7 C 0,0 km/h (0 Bft)
17.05.2012 09:30 9,9 C 73 % 0,0 l/m 1,8 km/h (1 Bft) W-NW 292 1,1 C 12,6 C 4,8 km/h (1 Bft)
17.05.2012 09:35 10,3 C 73 % 0,0 l/m 1,9 km/h (1 Bft) N-NW 337 4,1 C 13,5 C 4,8 km/h (1 Bft)
17.05.2012 09:40 10,1 C 73 % 0,0 l/m 3,5 km/h (1 Bft) N 360 2,5 C 13,5 C 2,4 km/h (1 Bft)
17.05.2012 09:45 10,2 C 73 % 0,0 l/m 4,0 km/h (1 Bft) N-NW 337 2,0 C 13,2 C 7,2 km/h (2 Bft)
17.05.2012 09:50 7,3 C 73 % 0,0 l/m 4,0 km/h (1 Bft) W 270 0,3 C 11,6 C 2,9 km/h (1 Bft)
17.05.2012 09:55 6,6 C 73 % 0,0 l/m 3,7 km/h (1 Bft) W-NW 292 0,7 C 10,1 C 5,5 km/h (1 Bft)
17.05.2012 10:00 9,5 C 73 % 0,0 l/m 1,9 km/h (1 Bft) SO 135 4,1 C 9,3 C 0,0 km/h (0 Bft)
17.05.2012 10:05 10,2 C 73 % 0,0 l/m 3,1 km/h (1 Bft) O-SO 112 2,5 C 11,2 C 16,1 km/h (3 Bft)
17.05.2012 10:10 10,7 C 73 % 0,0 l/m 5,3 km/h (1 Bft) N 360 2,2 C 12,2 C 3,7 km/h (1 Bft)
17.05.2012 10:15 10,9 C 73 % 0,0 l/m 6,0 km/h (2 Bft) W-NW 292 2,5 C 12,3 C 11,6 km/h (2 Bft)
17.05.2012 10:20 9,2 C 73 % 0,0 l/m 5,5 km/h (1 Bft) N-NO 22 0,9 C 12,3 C 6,8 km/h (2 Bft)
17.05.2012 10:25 8,3 C 73 % 0,0 l/m 5,1 km/h (1 Bft) W-SW 247 0,8 C 11,2 C 4,5 km/h (1 Bft)
17.05.2012 10:30 9,9 C 73 % 0,0 l/m 4,2 km/h (1 Bft) S 180 3,2 C 10,2 C 0,0 km/h (0 Bft)
17.05.2012 10:35 11,6 C 73 % 0,0 l/m 3,2 km/h (1 Bft) SW 225 3,9 C 11,8 C 3,4 km/h (1 Bft)
17.05.2012 10:40 11,0 C 73 % 0,0 l/m 3,7 km/h (1 Bft) W-SW 247 2,3 C 13,0 C 5,1 km/h (1 Bft)
17.05.2012 10:45 8,1 C 73 % 0,0 l/m 4,5 km/h (1 Bft) W 270 0,8 C 11,9 C 3,7 km/h (1 Bft)
17.05.2012 10:50 11,2 C 73 % 0,0 l/m 3,1 km/h (1 Bft) W-SW 247 4,0 C 11,2 C 6,8 km/h (2 Bft)
17.05.2012 10:55 10,5 C 73 % 0,0 l/m 4,0 km/h (1 Bft) W-SW 247 0,2 C 12,0 C 9,2 km/h (2 Bft)
17.05.2012 11:00 10,3 C 73 % 0,0 l/m 6,3 km/h (2 Bft) W-NW 292 0,1 C 11,9 C 5,6 km/h (1 Bft)
17.05.2012 11:05 11,1 C 73 % 0,0 l/m 4,7 km/h (1 Bft) NW 315 2,7 C 12,6 C 0,0 km/h (0 Bft)
17.05.2012 11:10 10,4 C 73 % 0,0 l/m 4,2 km/h (1 Bft) SO 135 1,5 C 12,5 C 4,2 km/h (1 Bft)
17.05.2012 11:15 11,5 C 73 % 0,0 l/m 4,0 km/h (1 Bft) W-NW 292 0,9 C 12,8 C 8,9 km/h (2 Bft)
17.05.2012 11:20 11,1 C 73 % 0,0 l/m 5,0 km/h (1 Bft) W-NW 292 0,5 C 12,6 C 7,6 km/h (2 Bft)
17.05.2012 11:25 11,0 C 73 % 0,0 l/m 6,1 km/h (2 Bft) N 360 -0,2 C 12,2 C 5,8 km/h (2 Bft)
17.05.2012 11:30 11,3 C 73 % 0,0 l/m 5,6 km/h (1 Bft) W-SW 247 -0,5 C 12,7 C 4,5 km/h (1 Bft)
17.05.2012 11:35 12,1 C 73 % 0,0 l/m 5,6 km/h (1 Bft) N-NW 337 1,4 C 12,7 C 6,6 km/h (2 Bft)
17.05.2012 11:40 11,3 C 73 % 0,0 l/m 5,1 km/h (1 Bft) N 360 0,7 C 11,9 C 7,2 km/h (2 Bft)
17.05.2012 11:45 11,4 C 73 % 0,0 l/m 4,8 km/h (1 Bft) W-SW 247 -0,4 C 11,8 C 8,5 km/h (2 Bft)
17.05.2012 11:50 12,1 C 73 % 0,0 l/m 5,3 km/h (1 Bft) S-SW 202 0,5 C 11,9 C 3,2 km/h (1 Bft)
17.05.2012 11:55 12,1 C 73 % 0,0 l/m 5,5 km/h (1 Bft) NO 45 -0,4 C 12,2 C 7,2 km/h (2 Bft)
17.05.2012 12:00 12,4 C 73 % 0,0 l/m 5,8 km/h (2 Bft) W 270 1,7 C 11,7 C 10,5 km/h (2 Bft)
17.05.2012 12:05 12,6 C 73 % 0,0 l/m 6,0 km/h (2 Bft) W 270 0,4 C 11,6 C 8,0 km/h (2 Bft)
17.05.2012 12:10 11,0 C 73 % 0,0 l/m 6,0 km/h (2 Bft) W 270 -0,8 C 11,3 C 10,1 km/h (2 Bft)
17.05.2012 12:15 9,4 C 73 % 0,0 l/m 5,5 km/h (1 Bft) NW 315 -1,3 C 10,6 C 2,9 km/h (1 Bft)
17.05.2012 12:21 12,6 C 73 % 0,0 l/m 1,9 km/h (1 Bft) W-NW 292 0,4 C 11,7 C 4,5 km/h (1 Bft)
17.05.2012 12:25 12,6 C 73 % 0,0 l/m 1,9 km/h (1 Bft) W-NW 292 0,4 C 11,7 C 4,5 km/h (1 Bft)
17.05.2012 12:30 11,2 C 73 % 0,0 l/m 1,6 km/h (1 Bft) W-SW 247 0,6 C 12,0 C 4,5 km/h (1 Bft)
17.05.2012 12:35 10,2 C 73 % 0,0 l/m 2,4 km/h (1 Bft) NO 45 -1,2 C 11,7 C 2,3 km/h (1 Bft)
17.05.2012 12:40 10,6 C 73 % 0,0 l/m 4,0 km/h (1 Bft) S-SO 157 0,1 C 11,3 C 3,4 km/h (1 Bft)
17.05.2012 12:45 10,0 C 73 % 0,0 l/m 3,1 km/h (1 Bft) O-SO 112 -0,8 C 11,2 C 0,0 km/h (0 Bft)
17.05.2012 12:50 9,4 C 73 % 0,0 l/m 1,3 km/h (1 Bft) N 360 -1,0 C 11,2 C 3,2 km/h (1 Bft)
17.05.2012 12:55 11,7 C 73 % 0,0 l/m 1,9 km/h (1 Bft) W-NW 292 1,3 C 11,3 C 1,9 km/h (1 Bft)
17.05.2012 13:00 13,4 C 73 % 0,0 l/m 3,1 km/h (1 Bft) S-SO 157 0,8 C 12,0 C 3,1 km/h (1 Bft)
17.05.2012 13:05 11,9 C 73 % 0,0 l/m 2,9 km/h (1 Bft) NW 315 -0,3 C 12,2 C 4,5 km/h (1 Bft)
17.05.2012 13:10 11,4 C 73 % 0,0 l/m 3,7 km/h (1 Bft) W 270 -0,4 C 12,0 C 6,0 km/h (2 Bft)
17.05.2012 13:15 10,5 C 73 % 0,0 l/m 3,7 km/h (1 Bft) SW 225 -1,2 C 11,7 C 0,0 km/h (0 Bft)
17.05.2012 13:20 10,2 C 73 % 0,0 l/m 3,2 km/h (1 Bft) N-NW 337 -1,5 C 11,6 C 2,1 km/h (1 Bft)
17.05.2012 13:25 10,3 C 73 % 0,0 l/m 2,6 km/h (1 Bft) NO 45 -0,5 C 11,5 C 2,4 km/h (1 Bft)
17.05.2012 13:30 12,5 C 73 % 0,0 l/m 1,6 km/h (1 Bft) S 180 0,6 C 12,5 C 2,3 km/h (1 Bft)
17.05.2012 13:35 13,6 C 73 % 0,0 l/m 1,8 km/h (1 Bft) O 90 0,9 C 13,6 C 1,8 km/h (1 Bft)
17.05.2012 13:40 13,9 C 73 % 0,0 l/m 2,3 km/h (1 Bft) W-SW 247 0,5 C 14,6 C 1,9 km/h (1 Bft)
17.05.2012 13:45 11,7 C 73 % 0,0 l/m 2,1 km/h (1 Bft) S 180 -1,8 C 14,6 C 2,9 km/h (1 Bft)
17.05.2012 13:50 11,9 C 73 % 0,0 l/m 2,1 km/h (1 Bft) S-SW 202 0,0 C 13,9 C 1,9 km/h (1 Bft)
17.05.2012 13:55 13,2 C 73 % 0,0 l/m 1,8 km/h (1 Bft) W-NW 292 0,9 C 14,3 C 3,2 km/h (1 Bft)
17.05.2012 14:00 13,9 C 73 % 0,0 l/m 3,1 km/h (1 Bft) SO 135 0,9 C 15,2 C 1,6 km/h (1 Bft)
17.05.2012 14:05 14,1 C 73 % 0,0 l/m 5,0 km/h (1 Bft) W-SW 247 -0,4 C 15,8 C 9,2 km/h (2 Bft)
17.05.2012 14:10 13,3 C 73 % 0,0 l/m 5,8 km/h (2 Bft) W-NW 292 -0,7 C 14,8 C 4,3 km/h (1 Bft)
17.05.2012 14:15 13,9 C 73 % 0,0 l/m 5,0 km/h (1 Bft) W-NW 292 -0,2 C 15,3 C 5,0 km/h (1 Bft)
17.05.2012 14:20 14,0 C 73 % 0,0 l/m 3,7 km/h (1 Bft) O-NO 67 -0,8 C 15,7 C 3,9 km/h (1 Bft)
17.05.2012 14:25 14,4 C 73 % 0,0 l/m 3,9 km/h (1 Bft) O-NO 67 1,0 C 16,1 C 6,8 km/h (2 Bft)
17.05.2012 14:30 13,4 C 73 % 0,0 l/m 5,6 km/h (1 Bft) N-NO 22 -1,0 C 15,6 C 7,4 km/h (2 Bft)
17.05.2012 14:35 13,9 C 73 % 0,0 l/m 6,1 km/h (2 Bft) S 180 -0,9 C 15,5 C 11,4 km/h (2 Bft)
17.05.2012 14:40 14,1 C 73 % 0,0 l/m 4,0 km/h (1 Bft) W-NW 292 -0,4 C 15,9 C 5,8 km/h (2 Bft)
17.05.2012 14:45 13,4 C 73 % 0,0 l/m 4,3 km/h (1 Bft) S 180 -1,7 C 15,8 C 3,2 km/h (1 Bft)
17.05.2012 14:50 13,6 C 73 % 0,0 l/m 4,0 km/h (1 Bft) N 360 -1,2 C 15,9 C 2,3 km/h (1 Bft)
17.05.2012 14:55 13,9 C 73 % 0,0 l/m 3,1 km/h (1 Bft) S-SW 202 0,5 C 15,5 C 3,1 km/h (1 Bft)
17.05.2012 15:00 14,3 C 73 % 0,0 l/m 3,5 km/h (1 Bft) W 270 -0,6 C 15,5 C 8,2 km/h (2 Bft)
17.05.2012 15:05 14,1 C 73 % 0,0 l/m 4,7 km/h (1 Bft) W-SW 247 -0,4 C 15,3 C 5,5 km/h (1 Bft)
17.05.2012 15:10 13,3 C 73 % 0,0 l/m 5,5 km/h (1 Bft) S 180 -1,4 C 14,8 C 8,7 km/h (2 Bft)
17.05.2012 15:15 13,3 C 73 % 0,0 l/m 6,4 km/h (2 Bft) N-NW 337 -0,7 C 14,4 C 2,7 km/h (1 Bft)
17.05.2012 15:20 11,3 C 73 % 0,0 l/m 6,0 km/h (2 Bft) S 180 -1,8 C 13,7 C 8,4 km/h (2 Bft)
17.05.2012 15:25 13,3 C 73 % 0,0 l/m 3,9 km/h (1 Bft) W-SW 247 -0,4 C 13,4 C 6,0 km/h (2 Bft)
17.05.2012 15:30 13,4 C 73 % 0,0 l/m 4,8 km/h (1 Bft) W-NW 292 -0,6 C 14,3 C 10,8 km/h (2 Bft)
17.05.2012 15:35 12,4 C 73 % 0,0 l/m 5,0 km/h (1 Bft) N-NW 337 -0,8 C 13,8 C 6,4 km/h (2 Bft)
17.05.2012 15:40 13,2 C 73 % 0,0 l/m 5,3 km/h (1 Bft) S-SW 202 -0,8 C 14,0 C 6,8 km/h (2 Bft)
17.05.2012 15:45 13,3 C 73 % 0,0 l/m 5,6 km/h (1 Bft) W 270 -0,7 C 14,2 C 11,1 km/h (2 Bft)
17.05.2012 15:50 13,8 C 73 % 0,0 l/m 3,7 km/h (1 Bft) SO 135 0,1 C 14,8 C 2,6 km/h (1 Bft)
17.05.2012 15:55 13,9 C 73 % 0,0 l/m 3,1 km/h (1 Bft) W 270 -0,5 C 15,6 C 9,3 km/h (2 Bft)
17.05.2012 16:00 13,6 C 73 % 0,0 l/m 3,7 km/h (1 Bft) S-SW 202 -0,4 C 15,6 C 4,8 km/h (1 Bft)
17.05.2012 16:05 13,4 C 73 % 0,0 l/m 4,8 km/h (1 Bft) W-SW 247 -1,7 C 15,8 C 4,8 km/h (1 Bft)
17.05.2012 16:10 13,3 C 73 % 0,0 l/m 5,1 km/h (1 Bft) W-NW 292 -0,4 C 15,6 C 8,0 km/h (2 Bft)
17.05.2012 16:15 13,5 C 73 % 0,0 l/m 5,0 km/h (1 Bft) W-NW 292 -0,5 C 15,7 C 3,4 km/h (1 Bft)
17.05.2012 16:20 13,2 C 73 % 0,0 l/m 4,7 km/h (1 Bft) S-SW 202 -1,5 C 16,2 C 6,9 km/h (2 Bft)
17.05.2012 16:25 12,7 C 73 % 0,0 l/m 4,7 km/h (1 Bft) W-NW 292 -0,9 C 16,2 C 9,7 km/h (2 Bft)
17.05.2012 16:30 13,1 C 73 % 0,0 l/m 4,0 km/h (1 Bft) W-SW 247 -0,5 C 16,6 C 5,5 km/h (1 Bft)
17.05.2012 16:35 12,4 C 73 % 0,0 l/m 4,2 km/h (1 Bft) NO 45 -1,5 C 16,6 C 7,6 km/h (2 Bft)
17.05.2012 16:40 12,1 C 73 % 0,0 l/m 4,5 km/h (1 Bft) W-NW 292 -1,1 C 16,3 C 5,8 km/h (2 Bft)
17.05.2012 16:45 12,0 C 73 % 0,0 l/m 4,0 km/h (1 Bft) W 270 -0,8 C 16,4 C 2,3 km/h (1 Bft)
17.05.2012 16:50 11,6 C 73 % 0,0 l/m 4,0 km/h (1 Bft) W 270 -0,9 C 16,6 C 4,8 km/h (1 Bft)
17.05.2012 16:55 11,7 C 73 % 0,0 l/m 4,0 km/h (1 Bft) W 270 -0,5 C 16,7 C 6,8 km/h (2 Bft)
17.05.2012 17:00 11,5 C 73 % 0,0 l/m 4,5 km/h (1 Bft) O 90 -0,6 C 16,4 C 0,0 km/h (0 Bft)
17.05.2012 17:05 11,3 C 73 % 0,0 l/m 3,9 km/h (1 Bft) W-SW 247 -0,8 C 16,8 C 2,1 km/h (1 Bft)
17.05.2012 17:10 11,5 C 73 % 0,0 l/m 3,7 km/h (1 Bft) NW 315 -0,3 C 16,8 C 7,7 km/h (2 Bft)
17.05.2012 17:15 11,4 C 73 % 0,0 l/m 4,7 km/h (1 Bft) W 270 -0,1 C 16,8 C 7,2 km/h (2 Bft)
17.05.2012 17:20 11,5 C 73 % 0,0 l/m 5,6 km/h (1 Bft) W-SW 247 -0,0 C 16,7 C 10,9 km/h (2 Bft)
17.05.2012 17:25 11,3 C 73 % 0,0 l/m 5,6 km/h (1 Bft) W-SW 247 -0,5 C 16,6 C 9,0 km/h (2 Bft)
17.05.2012 17:30 11,4 C 73 % 0,0 l/m 5,5 km/h (1 Bft) S 180 0,2 C 16,6 C 3,5 km/h (1 Bft)
17.05.2012 17:35 11,4 C 73 % 0,0 l/m 4,8 km/h (1 Bft) W-SW 247 -0,1 C 16,6 C 5,6 km/h (1 Bft)
17.05.2012 17:40 11,4 C 73 % 0,0 l/m 5,1 km/h (1 Bft) W-NW 292 0,5 C 16,4 C 3,5 km/h (1 Bft)
17.05.2012 17:45 11,5 C 73 % 0,0 l/m 5,3 km/h (1 Bft) W 270 0,3 C 16,2 C 8,9 km/h (2 Bft)
17.05.2012 17:50 11,3 C 73 % 0,0 l/m 4,5 km/h (1 Bft) N 360 0,1 C 16,1 C 3,2 km/h (1 Bft)
17.05.2012 17:55 11,3 C 73 % 0,0 l/m 4,5 km/h (1 Bft) W-SW 247 -0,2 C 16,0 C 7,4 km/h (2 Bft)
17.05.2012 18:00 11,4 C 73 % 0,0 l/m 5,5 km/h (1 Bft) N 360 0,2 C 15,5 C 8,9 km/h (2 Bft)
17.05.2012 18:05 11,4 C 73 % 0,0 l/m 6,1 km/h (2 Bft) N-NO 22 0,2 C 15,5 C 4,5 km/h (1 Bft)
17.05.2012 18:10 11,1 C 73 % 0,0 l/m 5,3 km/h (1 Bft) W-SW 247 -0,1 C 15,4 C 7,7 km/h (2 Bft)
17.05.2012 18:15 11,0 C 73 % 0,0 l/m 5,5 km/h (1 Bft) W 270 -0,2 C 14,9 C 8,2 km/h (2 Bft)
17.05.2012 18:20 11,1 C 73 % 0,0 l/m 6,3 km/h (2 Bft) W 270 -0,1 C 15,0 C 5,3 km/h (1 Bft)
17.05.2012 18:25 11,3 C 73 % 0,0 l/m 5,8 km/h (2 Bft) N 360 0,1 C 15,0 C 5,8 km/h (2 Bft)
17.05.2012 18:30 11,2 C 73 % 0,0 l/m 6,0 km/h (2 Bft) W-NW 292 0,0 C 15,0 C 6,1 km/h (2 Bft)
17.05.2012 18:35 11,3 C 73 % 0,0 l/m 6,1 km/h (2 Bft) W-NW 292 0,1 C 15,1 C 8,0 km/h (2 Bft)
17.05.2012 18:40 11,3 C 73 % 0,0 l/m 6,0 km/h (2 Bft) W-SW 247 0,1 C 15,1 C 8,2 km/h (2 Bft)
17.05.2012 18:45 11,3 C 73 % 0,0 l/m 5,5 km/h (1 Bft) W-SW 247 0,1 C 15,3 C 3,5 km/h (1 Bft)
17.05.2012 18:50 11,3 C 73 % 0,0 l/m 4,8 km/h (1 Bft) NW 315 0,4 C 15,7 C 3,5 km/h (1 Bft)
17.05.2012 18:55 11,1 C 73 % 0,0 l/m 5,1 km/h (1 Bft) W 270 0,2 C 15,7 C 10,1 km/h (2 Bft)
17.05.2012 19:00 11,0 C 73 % 0,0 l/m 6,1 km/h (2 Bft) W-SW 247 0,1 C 15,2 C 9,0 km/h (2 Bft)
17.05.2012 19:05 10,9 C 73 % 0,0 l/m 6,4 km/h (2 Bft) W 270 0,3 C 15,0 C 6,1 km/h (2 Bft)
17.05.2012 19:10 10,8 C 73 % 0,0 l/m 6,8 km/h (2 Bft) W-SW 247 0,2 C 14,6 C 11,1 km/h (2 Bft)
17.05.2012 19:15 10,8 C 73 % 0,0 l/m 7,2 km/h (2 Bft) W-SW 247 0,2 C 13,8 C 11,1 km/h (2 Bft)
17.05.2012 19:20 10,7 C 73 % 0,0 l/m 6,4 km/h (2 Bft) W-NW 292 0,1 C 14,5 C 7,2 km/h (2 Bft)
17.05.2012 19:25 10,6 C 73 % 0,0 l/m 5,8 km/h (2 Bft) W-NW 292 0,1 C 14,2 C 6,6 km/h (2 Bft)
17.05.2012 19:30 10,6 C 73 % 0,0 l/m 4,8 km/h (1 Bft) W 270 0,3 C 14,3 C 4,5 km/h (1 Bft)
17.05.2012 19:35 10,6 C 73 % 0,0 l/m 4,3 km/h (1 Bft) W-NW 292 0,3 C 14,4 C 5,3 km/h (1 Bft)
17.05.2012 19:40 10,4 C 73 % 0,0 l/m 4,3 km/h (1 Bft) W 270 0,7 C 14,3 C 6,9 km/h (2 Bft)
17.05.2012 19:45 10,3 C 73 % 0,0 l/m 4,7 km/h (1 Bft) W-NW 292 0,3 C 14,2 C 7,4 km/h (2 Bft)
17.05.2012 19:50 10,2 C 73 % 0,0 l/m 5,6 km/h (1 Bft) NW 315 0,5 C 13,7 C 4,2 km/h (1 Bft)
17.05.2012 19:55 10,0 C 73 % 0,0 l/m 5,6 km/h (1 Bft) W-NW 292 0,6 C 13,5 C 8,5 km/h (2 Bft)
17.05.2012 20:00 9,8 C 73 % 0,0 l/m 5,0 km/h (1 Bft) W-NW 292 0,7 C 13,0 C 6,3 km/h (2 Bft)
17.05.2012 20:05 9,7 C 73 % 0,0 l/m 5,5 km/h (1 Bft) W-NW 292 0,6 C 12,8 C 6,0 km/h (2 Bft)
17.05.2012 20:10 9,4 C 73 % 0,0 l/m 4,8 km/h (1 Bft) W 270 0,3 C 12,4 C 4,3 km/h (1 Bft)
17.05.2012 20:15 9,2 C 73 % 0,0 l/m 3,7 km/h (1 Bft) W-SW 247 0,1 C 12,2 C 3,5 km/h (1 Bft)
17.05.2012 20:20 9,0 C 73 % 0,0 l/m 2,7 km/h (1 Bft) O-SO 112 -0,1 C 11,8 C 5,8 km/h (2 Bft)
17.05.2012 20:25 8,7 C 73 % 0,0 l/m 2,9 km/h (1 Bft) N-NW 337 -0,1 C 11,6 C 4,7 km/h (1 Bft)
17.05.2012 20:30 8,3 C 73 % 0,0 l/m 2,7 km/h (1 Bft) W 270 0,0 C 11,0 C 3,5 km/h (1 Bft)
17.05.2012 20:35 7,9 C 73 % 0,0 l/m 2,4 km/h (1 Bft) NW 315 -0,1 C 10,6 C 3,2 km/h (1 Bft)
17.05.2012 20:40 7,5 C 73 % 0,0 l/m 1,9 km/h (1 Bft) N-NW 337 -0,5 C 9,7 C 2,9 km/h (1 Bft)
17.05.2012 20:45 7,5 C 73 % 0,0 l/m 1,9 km/h (1 Bft) N 360 -0,5 C 8,8 C 4,0 km/h (1 Bft)
17.05.2012 20:50 7,0 C 73 % 0,0 l/m 1,8 km/h (1 Bft) N-NW 337 -0,9 C 7,9 C 4,3 km/h (1 Bft)
17.05.2012 20:55 6,8 C 73 % 0,0 l/m 1,6 km/h (1 Bft) N-NO 22 -0,9 C 7,3 C 2,6 km/h (1 Bft)
17.05.2012 21:00 6,7 C 73 % 0,0 l/m 1,4 km/h (1 Bft) N-NW 337 -0,7 C 6,8 C 3,9 km/h (1 Bft)
17.05.2012 21:05 6,5 C 73 % 0,0 l/m 1,6 km/h (1 Bft) O-NO 67 -0,9 C 6,6 C 0,0 km/h (0 Bft)
17.05.2012 21:10 6,2 C 73 % 0,0 l/m 1,4 km/h (1 Bft) N 360 -1,2 C 6,2 C 2,9 km/h (1 Bft)
17.05.2012 21:15 6,3 C 73 % 0,0 l/m 1,4 km/h (1 Bft) N 360 -0,9 C 6,1 C 2,3 km/h (1 Bft)
17.05.2012 21:20 6,2 C 73 % 0,0 l/m 2,4 km/h (1 Bft) N-NO 22 -1,0 C 6,0 C 2,1 km/h (1 Bft)
17.05.2012 21:25 6,0 C 73 % 0,0 l/m 2,4 km/h (1 Bft) W-NW 292 -1,2 C 5,9 C 2,4 km/h (1 Bft)
17.05.2012 21:30 6,0 C 73 % 0,0 l/m 2,6 km/h (1 Bft) N-NW 337 -0,9 C 5,7 C 3,7 km/h (1 Bft)
17.05.2012 21:35 5,6 C 73 % 0,0 l/m 2,3 km/h (1 Bft) NO 45 -0,9 C 5,7 C 0,0 km/h (0 Bft)
17.05.2012 21:40 5,4 C 73 % 0,0 l/m 1,3 km/h (1 Bft) NW 315 -1,1 C 5,4 C 3,2 km/h (1 Bft)
17.05.2012 21:45 5,2 C 73 % 0,0 l/m 0,6 km/h (0 Bft) N-NO 22 -0,6 C 5,3 C 0,0 km/h (0 Bft)
17.05.2012 21:50 5,1 C 73 % 0,0 l/m 0,6 km/h (0 Bft) N-NW 337 -0,5 C 4,9 C 3,9 km/h (1 Bft)
17.05.2012 21:55 5,0 C 73 % 0,0 l/m 0,8 km/h (0 Bft) N 360 -0,6 C 4,7 C 1,6 km/h (1 Bft)
17.05.2012 22:00 4,9 C 73 % 0,0 l/m 0,8 km/h (0 Bft) N 360 -0,3 C 4,5 C 2,1 km/h (1 Bft)
17.05.2012 22:05 4,7 C 73 % 0,0 l/m 0,5 km/h (0 Bft) N-NO 22 -0,7 C 4,2 C 1,6 km/h (1 Bft)
17.05.2012 22:10 4,8 C 73 % 0,0 l/m 1,3 km/h (1 Bft) N-NW 337 -0,6 C 4,1 C 3,4 km/h (1 Bft)
17.05.2012 22:15 4,7 C 73 % 0,0 l/m 1,6 km/h (1 Bft) N 360 -0,5 C 4,1 C 2,7 km/h (1 Bft)
17.05.2012 22:20 4,6 C 73 % 0,0 l/m 1,4 km/h (1 Bft) N-NO 22 -0,6 C 3,9 C 3,1 km/h (1 Bft)
17.05.2012 22:25 4,5 C 73 % 0,0 l/m 1,3 km/h (1 Bft) N-NW 337 -0,5 C 3,8 C 3,1 km/h (1 Bft)
17.05.2012 22:30 4,3 C 73 % 0,0 l/m 1,8 km/h (1 Bft) O-SO 112 -0,7 C 3,7 C 0,0 km/h (0 Bft)
17.05.2012 22:35 4,2 C 73 % 0,0 l/m 1,8 km/h (1 Bft) N-NO 22 -0,6 C 3,6 C 3,4 km/h (1 Bft)
17.05.2012 22:40 3,8 C 73 % 0,0 l/m 1,1 km/h (1 Bft) N 360 -0,8 C 3,4 C 2,1 km/h (1 Bft)
17.05.2012 22:45 3,8 C 73 % 0,0 l/m 1,1 km/h (1 Bft) NO 45 -0,6 C 3,3 C 1,6 km/h (1 Bft)
17.05.2012 22:50 3,4 C 74 % 0,0 l/m 1,3 km/h (1 Bft) N 360 -0,8 C 3,1 C 0,0 km/h (0 Bft)
17.05.2012 22:55 3,2 C 74 % 0,0 l/m 1,0 km/h (0 Bft) NW 315 -1,0 C 2,7 C 0,0 km/h (0 Bft)
17.05.2012 23:00 3,0 C 74 % 0,0 l/m 0,3 km/h (0 Bft) N 360 -1,2 C 2,2 C 0,0 km/h (0 Bft)
17.05.2012 23:05 2,9 C 76 % 0,0 l/m 0,8 km/h (0 Bft) N 360 -0,9 C 2,1 C 2,4 km/h (1 Bft)
17.05.2012 23:10 2,8 C 77 % 0,0 l/m 1,0 km/h (0 Bft) N 360 -0,8 C 2,0 C 0,0 km/h (0 Bft)
17.05.2012 23:15 2,9 C 77 % 0,0 l/m 0,6 km/h (0 Bft) NO 45 -0,7 C 1,8 C 0,0 km/h (0 Bft)
17.05.2012 23:20 2,7 C 77 % 0,0 l/m 0,5 km/h (0 Bft) N-NW 337 -0,9 C 1,8 C 1,8 km/h (1 Bft)
17.05.2012 23:25 2,5 C 77 % 0,0 l/m 0,5 km/h (0 Bft) S 180 -1,1 C 1,7 C 0,0 km/h (0 Bft)
17.05.2012 23:30 1,5 C 77 % 0,0 l/m 0,3 km/h (0 Bft) O-SO 112 -2,1 C 1,2 C 0,0 km/h (0 Bft)
17.05.2012 23:35 1,4 C 78 % 0,0 l/m 0,0 km/h (0 Bft) N 360 -2,0 C 0,9 C 0,0 km/h (0 Bft)
17.05.2012 23:40 2,1 C 79 % 0,0 l/m 0,5 km/h (0 Bft) N 360 -1,2 C 0,8 C 3,2 km/h (1 Bft)
17.05.2012 23:45 2,4 C 79 % 0,0 l/m 0,8 km/h (0 Bft) N-NO 22 -0,9 C 0,9 C 0,0 km/h (0 Bft)
17.05.2012 23:50 2,3 C 79 % 0,0 l/m 1,1 km/h (1 Bft) N-NW 337 -1,0 C 1,3 C 0,0 km/h (0 Bft)
17.05.2012 23:55 1,7 C 79 % 0,0 l/m 0,5 km/h (0 Bft) NO 45 -1,5 C 1,1 C 0,0 km/h (0 Bft)
_ Min-Zeit 05:25 22:45 - 23:35 - - 23:30 05:45 23:55
Minimum _ -0,3 C 73 % - 0,0 km/h (0 Bft) - - -2,1 C -1,0 C 0,0 km/h (0 Bft)
_ Max-Zeit 14:25 06:35 23:55 19:15 - - 09:25 17:15 10:05
Maximum _ 14,4 C 96 % 0,0 l/m 7,2 km/h
W-SW (2 Bft)
- - 6,5 C 16,8 C 16,1 km/h
O-SO (3 Bft)
Durchschnitt _ 6,9 C 81 % #0,0 l/m 2,5 km/h (1 Bft) W-NW - 0,4 C 7,9 C 3,4 km/h (1 Bft)